This is the latest recevied weather packets stored in our database for station/object PP5CI-13. If no packets are shown the sender has not sent any weather packets the latest 10 day(s).
| Time | Temp. | Humidity | Pressure | Rain* | Wind** | Luminosity | Snow |
|---|---|---|---|---|---|---|---|
| 1777841120 | 20.56° C | 74% | 1022.2 hPa | 0 mm | - | - | - |
| 1777840522 | 20.56° C | 73% | 1022.2 hPa | 0 mm | - | - | - |
| 1777839920 | 20.56° C | 73% | 1022.2 hPa | 0 mm | - | - | - |
| 1777839321 | 20.56° C | 72% | 1022.2 hPa | 0 mm | - | - | - |
| 1777838722 | 20.56° C | 72% | 1022.2 hPa | 0 mm | - | - | - |
| 1777838121 | 21.11° C | 71% | 1022.2 hPa | 0 mm | - | - | - |
| 1777837521 | 21.11° C | 71% | 1022.2 hPa | 0 mm | - | - | - |
| 1777836922 | 20.56° C | 71% | 1022.2 hPa | 0 mm | - | - | - |
| 1777836320 | 20.56° C | 70% | 1022.2 hPa | 0 mm | - | - | - |
| 1777835720 | 21.11° C | 70% | 1022.2 hPa | 0 mm | - | - | - |
| 1777835122 | 21.11° C | 70% | 1022.2 hPa | 0 mm | - | - | - |
| 1777834520 | 21.11° C | 67% | 1022.2 hPa | 0 mm | - | - | - |
| 1777833920 | 21.11° C | 69% | 1022.2 hPa | 0 mm | - | - | - |
| 1777833321 | 21.67° C | 67% | 1023.2 hPa | 0 mm | - | - | - |
| 1777832720 | 21.67° C | 67% | 1023.2 hPa | 0 mm | - | - | - |
| 1777832120 | 22.22° C | 67% | 1023.2 hPa | 0 mm | - | - | - |
| 1777831521 | 21.67° C | 67% | 1023.2 hPa | 0 mm | - | - | - |
| 1777830920 | 21.67° C | 67% | 1023.2 hPa | 0 mm | - | - | - |
| 1777830320 | 21.67° C | 67% | 1023.2 hPa | 0 mm | - | - | - |
| 1777829721 | 21.67° C | 65% | 1023.2 hPa | 0 mm | - | - | - |
| 1777829120 | 22.22° C | 66% | 1023.2 hPa | 0 mm | - | - | - |
| 1777828521 | 22.22° C | 66% | 1023.2 hPa | 0 mm | - | - | - |
| 1777827921 | 21.67° C | 67% | 1023.2 hPa | 0 mm | - | - | - |
| 1777827320 | 21.11° C | 67% | 1023.2 hPa | 0 mm | - | - | - |
| 1777826720 | 21.11° C | 67% | 1023.4 hPa | 0 mm | - | - | - |
* Rain latest hour (hover to see other rain measurements)
** Current wind speed in m/s (hover to see current wind gust speed)